sat.trackr.live / text

‹ back to catalog

STARLINK-11559 [DTC]

NORAD 62831 · 2025-019C

PAYLOAD ACTIVE UNKNOWN

§ Identity

Operator
Country
US
Launch date
2025-01-27
Launch site
AFETR
Launch vehicle
Mass (kg)
RCS (m²)

Purposes: comms

External: N2YO · Heavens-Above · Gunter

§ Orbital elements

Epoch: 2026-09-21T03:09:29.305152Z

Period
91.67 min
Inclination
42.9978°
Eccentricity
0.0000868
Mean motion
15.70869016 rev/d
Perigee alt
355.8 km
Apogee alt
357.0 km
Semi-major
6,734.5 km
B*
5.9750e-4
RAAN
208.3741°
Arg perigee
210.3059°
Mean anomaly
149.7759°
Rev number
9,461

§ Raw data

STARLINK-11559 [DTC]1 62831U 25019C   26264.13158918  .00077025  00000+0  59750-3 0  99922 62831  42.9978 208.3741 0000868 210.3059 149.7759 15.70869016 94613

JSON: /api/v1/satellites/62831 · /tle

For live sub-satellite position, see the globe view (requires WebGL).

§ Visibility from observer

Set your observer location to see the next 7 days of passes ≥ 10°. The values pass through the URL so the page stays shareable.

No JS? Fill the form by hand. The geolocation button needs JavaScript.